Regional Weather Roundup
Issued by NWS

Home | Current Version | Previous Version | Graphics & Text | Print | Product List | Glossary On
Versions: 1 2 3 4 5 6 7 8 9 10 11 12 13 14 15 16 17 18 19 20 21 22 23 24 25 26 27
000
ASUS45 KBOU 070107
RWRCO

WEATHER ROUNDUP FOR COLORADO
NATIONAL WEATHER SERVICE DENVER/BOULDER CO
600 PM MST TUE DEC 06 2016

NOTE: "FAIR" INDICATES FEW OR NO CLOUDS BELOW 12000 FEET WITH NO
SIGNIFICANT WEATHER AND/OR OBSTRUCTIONS TO VISIBILITY.

COZ001>005-013-030-031-070200-
...NORTHWEST COLORADO...

CITY           SKY/WX    TMP DP  RH WIND       PRES   REMARKS
CRAIG          CLOUDY    23   7  50 N9        29.71R WCI  13
HAYDEN         CLOUDY    21   7  53 CALM      29.68R
MEEKER         CLOUDY    22  12  65 CALM      29.67R
MOUNT WERNER   NOT AVBL
STEAMBOAT SPGS CLOUDY    17   8  68 CALM      29.66R
WALDEN           N/A     12   9  85 NW3       29.65S
$$

COZ006>008-011-070200-
...WEST CENTRAL VALLEYS...

CITY           SKY/WX    TMP DP  RH WIND       PRES   REMARKS
GRAND JUNCTION FAIR      20  11  68 N3        29.70R
MONTROSE       FAIR      28  14  55 S5        29.69R WCI  23
EAGLE          CLOUDY    25  14  63 CALM      29.68S
RIFLE          MOCLDY    26  13  57 SW5       29.69R WCI  20
DELTA          NOT AVBL
NUCLA          FAIR      37  12  35 SW14      29.70S
$$

COZ017>023-064>068-070200-
...SOUTHWEST COLORADO...

CITY           SKY/WX    TMP DP  RH WIND       PRES   REMARKS
DURANGO        CLOUDY    35  14  42 CALM      29.74F
CORTEZ         FAIR      31  20  63 CALM      29.73S
PAGOSA SPRINGS FAIR      33  15  47 S7        29.76S WCI  27
TELLURIDE      MOCLDY    29   9  43 SW20G30   29.73S WCI  16
WOLF CREEK PAS LGT SNOW  12  12 100 SW30G46   29.67F WCI  -9
$$

COZ009-010-012-014-032>034-037-058>063-070200-
...CENTRAL COLORADO...

CITY           SKY/WX    TMP DP  RH WIND       PRES   REMARKS
ASPEN          CLOUDY    26  20  77 S5        29.61S WCI  20
BUENA VISTA    FLURRIES  19   9  65 SE18      29.65R WCI   3
COPPER MTN     LGT SNOW  14   7  73 MISG      29.57S VSB 3/4
BERTHOUD PASS  LGT SNOW   5  -8  56 W16G28    29.54R WCI -14
COTTONWOOD PAS LGT SNOW  23  19  86 E5        29.61F WCI  17
GUNNISON       FAIR      23  17  78 E3        29.66R
KREMMLING      LGT SNOW  21  18  86 CALM      29.68S
LEADVILLE      LGT SNOW  17  14  88 SE5       29.58S VSB 1   WCI  10
MONARCH PASS   CLOUDY    12  10  92 SW24G33   29.71R WCI  -8
SALIDA         CLOUDY    18  10  70 SE15G26   29.76S WCI   4
SUNLIGHT       CLOUDY    14   9  79 SW20G32   29.62S WCI  -3
WILKERSON PASS CLOUDY     9   3  78 SW7G16    29.62S WCI  -3
$$

COZ069>075-070200-
...SAN LUIS VALLEY/SANGRE DE CRISTO MOUNTAINS...

CITY           SKY/WX    TMP DP  RH WIND       PRES   REMARKS
ALAMOSA        FAIR      26  20  77 S14       29.71S WCI  14
LA VETA PASS   CLOUDY    21  16  79 N23G44    29.67F WCI   5
SAGUACHE       FAIR      30  14  51 SW9       29.67S WCI  22
$$

COZ035-036-038>040-070200-
...NORTHERN COLORADO FRONT RANGE...

CITY           SKY/WX    TMP DP  RH WIND       PRES   REMARKS
DENVER INTL AP FLURRIES  22   5  48 SE12      29.81S WCI  10
DMNS CITY PARK   N/A     24   6  45 E9G15     29.83S WCI  14
AURORA         NOT AVBL
FRONT RANGE AP CLOUDY    27  -2  28 SE12      29.83S WCI  16
ERIE MUNI ARPT LGT SNOW  25  16  70 SE6       29.84R WCI  18
BOULDER MUN AP LGT SNOW  23  19  86 W3        29.82S
CENTENNIAL     CLOUDY    21  -1  38 SE14      29.80R WCI   8
BROOMFIELD     LGT SNOW  23  18  80 NW5       29.81R WCI  17
FORT COLLINS   FAIR      25   9  50 S16G23    29.85R WCI  12
LONGMONT       CLOUDY    28  15  58 CALM      29.85R
$$

COZ041-046-047-076>085-087-088-070200-
...PIKES PEAK/PALMER DIVIDE AND SOUTHERN FOOTHILLS...

CITY           SKY/WX    TMP DP  RH WIND       PRES   REMARKS
COLO. SPRINGS  LGT SNOW  17  10  74 E6        29.81S WCI   9
A. F. ACADEMY  FLURRIES  16   9  73 S13       29.79R WCI   2
SCHRIEVER AFB  NOT AVBL
ELLICOTT       CLOUDY   N/A N/A N/A SE14        N/A
FALCON         LGT SNOW  14  10  83 SE8       29.79S WCI   3
FORT CARSON    MOCLDY    21   3  45 S5        29.81S WCI  15
LIMON          CLOUDY    12  -4  48 SE3       29.86S
MONUMENT HILL  FAIR      10   0  61 SE8       29.77S WCI  -1
TRINIDAD       FAIR      29   4  34 NW12      29.79R WCI  19
$$

COZ042>045-048>051-090-091-070200-
...NORTHEAST COLORADO...

CITY           SKY/WX    TMP DP  RH WIND       PRES   REMARKS
GREELEY ARPT   MOCLDY    25  -4  28 E13       29.88S WCI  14
AKRON          CLOUDY    24  -5  27 E7        29.91R WCI  16
BURLINGTON     CLOUDY    22  -4  32 SE9       29.94S WCI  12
WRAY           CLOUDY    28   0  29 E6        29.97R WCI  22
STERLING       CLOUDY    28   0  29 NE8       29.94R WCI  20
HOLYOKE        FAIR      27   1  33 NE7       29.98R WCI  19
FORT MORGAN    CLOUDY    26  -6  24 NE7       29.91S WCI  18
$$

COZ086-089-092>099-070200-
...SOUTHEAST COLORADO...

CITY           SKY/WX    TMP DP  RH WIND       PRES   REMARKS
PUEBLO         FAIR      22   0  38 NE8       29.85S WCI  12
LA JUNTA       FAIR      25  -1  32 E20       29.83F WCI  11
LAMAR          FAIR      24  -1  33 SE10      29.92S WCI  14
SPRINGFIELD      N/A     22   1  40 SE15      29.89F WCI   9
$$




USA.gov is the U.S. government's official web portal to all federal, state and local government web resources and services.